Location: Ocean City
(38.3360°N, 75.0850°W)
Time: 07:26:22
(UTC-04:00)

STARS - Visible Passes

Search period start: 19 May 2019 00:00
Search period end: 29 May 2019 00:00
Orbit: 626 x 639 km, 98.3° (Epoch: 18 May)

Date Brightness Start Highest point End Pass type
(mag) Time Alt. Az. Time Alt. Az. Time Alt. Az.
19 May ? 21:56:06 10° NNW 21:58:51 16° WNW 22:01:35 10° WSW visible
20 May ? 20:39:37 10° NNE 20:44:03 77° ESE 20:48:27 10° S visible
21 May ? 21:00:46 10° N 21:05:08 61° WNW 21:09:27 10° SSW visible
22 May ? 21:22:06 10° N 21:26:08 36° WNW 21:30:09 10° SW visible
23 May ? 21:43:42 10° NNW 21:47:05 22° WNW 21:50:27 10° WSW visible
24 May ? 22:05:50 10° NW 22:07:58 13° WNW 22:10:07 10° W visible
25 May ? 20:48:50 10° NNE 20:53:16 86° WNW 20:57:39 10° SSW visible
26 May ? 21:10:03 10° N 21:14:19 49° WNW 21:18:32 10° SSW visible
27 May ? 21:31:29 10° N 21:35:18 29° WNW 21:39:05 10° SW visible
28 May ? 21:53:14 10° NNW 21:56:13 18° WNW 21:59:11 10° WSW visible
